Terug naar catalogus

STARLINK-35205

ActiefCommunicatieVLEO
NORAD 65679·PAYLOAD·🇺🇸 United States

Gelanceerd Sep 21, 2025 vanaf Cape Canaveral Space Force Station

Loading…

Volgende Passages (komende 24 uur)

TLE

VersSource: CelesTrak SupGP

Epoch: Sep 14, 2026, 23:16 UTC

1 65679C 25212D   26257.96993056 -.00057814  00000+0 -17078-2 0  2572
2 65679  53.1570 183.5134 0001400  92.2040 324.3690 15.34425475    11

Volg STARLINK-35205 in realtime met AllMySat

Download on the App Store